Paris, IL

9:30 PM CDT on April 27, 2017 (GMT -0500)
Edgar County

Weather History for KPRG - December, 2012

Change the Weather History Date:

Friday, December 7, 2012

  Actual Average (KHUF) Record (KHUF)
Temperature  
Mean Temperature 46 °F -  
Max Temperature 49 °F 42 °F 68 °F (1956)
Min Temperature 44 °F 27 °F -3 °F (1977)
Degree Days  
Heating Degree Days 18    
Moisture  
Dew Point 46 °F    
Average Humidity 96    
Maximum Humidity 99    
Minimum Humidity 88    
Precipitation  
Precipitation 0.19 in - - ()
Sea Level Pressure  
Sea Level Pressure 29.89 in    
Wind  
Wind Speed 2 mph (ENE)    
Max Wind Speed 10 mph    
Max Gust Speed -    
Visibility 4 miles    
Events Fog , Rain    
Averages and records for this station are not official NWS values.
T = Trace of Precipitation, MM = Missing Value Source: NWS Daily Summary

Daily Weather History Graph

Daily Weather History Graph

Search for Another Location

Airport or City:

Trip Planner

Search our weather history database for the weather conditions in past years. The results will help you decide how hot, cold, wet, or windy it might be!

Date:

Astronomy

Dec. 07, 2012 Rise Set
Actual Time 6:58 AM CST 4:26 PM CST
Civil Twilight 6:28 AM CST 4:56 PM CST
Nautical Twilight 5:54 AM CST 5:29 PM CST
Astronomical Twilight 5:22 AM CST 6:02 PM CST
Moon 12:18 AM CST (12/7) 12:22 PM CST (12/7)
Length of Visible Light 10h 27m
Length of Day
9h 27m
Last Quarter, 38% of the Moon is Illuminated
Dec 7
Last Quarter
Dec 13
New
Dec 19
First Quarter
Dec 28
Full
Jan 4
Last Quarter

Hourly Weather History & Observations

Time (CST) Temp. Windchill Dew Point Humidity Pressure Visibility Wind Dir Wind Speed Gust Speed Precip Events Conditions
12:15 AM 45.7 °F 44.4 °F 42.4 °F 88% 29.97 in 10.0 mi SSW 3.5 mph - N/A   Overcast
12:35 AM 45.5 °F - 42.4 °F 89% 29.96 in 7.0 mi Calm Calm - N/A   Overcast
12:55 AM 44.6 °F - 42.1 °F 91% 29.95 in 7.0 mi Calm Calm - N/A   Overcast
1:15 AM 44.8 °F - 42.4 °F 91% 29.95 in 10.0 mi Calm Calm - N/A   Drizzle
1:35 AM 44.6 °F - 42.4 °F 92% 29.97 in 10.0 mi Calm Calm - N/A   Overcast
1:55 AM 45.5 °F - 43.2 °F 92% 29.96 in 10.0 mi Calm Calm - N/A   Overcast
2:15 AM 45.5 °F - 43.3 °F 92% 29.96 in 10.0 mi Calm Calm - N/A   Overcast
2:35 AM 45.5 °F - 43.9 °F 94% 29.96 in 10.0 mi Calm Calm - N/A Rain Rain
2:55 AM 45.7 °F - 44.4 °F 95% 29.96 in 10.0 mi Calm Calm - N/A   Light Drizzle
3:15 AM 45.5 °F - 44.2 °F 95% 29.95 in 7.0 mi Calm Calm - N/A Rain Light Rain
3:35 AM 45.0 °F - 43.7 °F 95% 29.94 in 4.0 mi Calm Calm - N/A   Light Drizzle
3:55 AM 44.6 °F - 43.7 °F 97% 29.94 in 2.5 mi Calm Calm - N/A   Overcast
4:15 AM 44.6 °F - 43.7 °F 97% 29.94 in 3.0 mi Calm Calm - N/A   Overcast
4:35 AM 44.2 °F 41.8 °F 43.3 °F 97% 29.93 in 1.5 mi North 4.6 mph - N/A   Overcast
4:55 AM 44.6 °F - 43.7 °F 97% 29.94 in 4.0 mi Calm Calm - N/A   Overcast
5:15 AM 44.2 °F - 43.5 °F 97% 29.94 in 2.5 mi Calm Calm - N/A   Overcast
5:35 AM 44.2 °F - 43.7 °F 98% 29.94 in 2.5 mi Calm Calm - N/A   Overcast
5:55 AM 44.2 °F 39.7 °F 43.5 °F 97% 29.96 in 3.0 mi SSE 8.1 mph - N/A   Overcast
6:15 AM 44.2 °F - 43.7 °F 98% 29.93 in 5.0 mi Calm Calm - N/A   Overcast
6:35 AM 44.2 °F 42.7 °F 43.7 °F 98% 29.94 in 4.0 mi East 3.5 mph - N/A   Overcast
6:55 AM 44.6 °F - 43.7 °F 97% 29.95 in 5.0 mi Calm Calm - N/A   Overcast
7:15 AM 44.8 °F - 44.1 °F 97% 29.95 in 10.0 mi Calm Calm - N/A   Overcast
7:55 AM 44.8 °F 43.3 °F 44.1 °F 97% 29.95 in 5.0 mi ESE 3.5 mph - N/A Rain Rain
8:15 AM 45.1 °F 43.7 °F 44.6 °F 98% 29.95 in 4.0 mi East 3.5 mph - N/A Rain Light Rain
8:35 AM 45.7 °F - 45.0 °F 97% 29.95 in 4.0 mi Calm Calm - N/A Rain Light Rain
8:55 AM 45.7 °F 42.0 °F 45.0 °F 97% 29.94 in 3.0 mi East 6.9 mph - N/A Rain Light Rain
9:15 AM 46.0 °F 43.9 °F 45.5 °F 98% 29.96 in 2.5 mi ESE 4.6 mph - N/A Rain Light Rain
9:35 AM 46.6 °F - 45.9 °F 97% 29.95 in 2.5 mi East 3.5 mph - 0.01 in Rain Light Rain
9:55 AM 46.9 °F - 46.4 °F 98% 29.95 in 3.0 mi ESE 4.6 mph - 0.01 in   Drizzle
10:15 AM 47.3 °F - 46.6 °F 97% 29.93 in 2.5 mi East 5.8 mph - 0.01 in Rain Light Rain
10:35 AM 47.5 °F - 46.8 °F 97% 29.93 in 3.0 mi ESE 6.9 mph - 0.01 in Rain Rain
10:55 AM 48.2 °F - 47.3 °F 97% 29.91 in 2.5 mi ESE 8.1 mph - 0.02 in   Drizzle
11:15 AM 48.2 °F - 47.3 °F 97% 29.91 in 5.0 mi ESE 5.8 mph - 0.01 in Rain Rain
11:35 AM 48.4 °F - 47.5 °F 97% 29.89 in 7.0 mi ESE 10.4 mph - 0.01 in   Light Drizzle
11:55 AM 48.4 °F - 47.3 °F 96% 29.89 in 7.0 mi ESE 8.1 mph - 0.01 in   Light Drizzle
12:15 PM 48.7 °F - 47.7 °F 96% 29.87 in 7.0 mi East 8.1 mph - N/A   Light Drizzle
12:35 PM 49.1 °F - 47.8 °F 95% 29.85 in 7.0 mi East 8.1 mph - 0.01 in   Overcast
12:55 PM 49.1 °F - 48.2 °F 97% 29.85 in 10.0 mi East 8.1 mph - 0.01 in   Overcast
1:15 PM 49.1 °F - 48.2 °F 97% 29.84 in 10.0 mi East 6.9 mph - N/A   Overcast
1:35 PM 49.1 °F - 48.2 °F 97% 29.83 in 4.0 mi East 4.6 mph - N/A   Heavy Drizzle
1:55 PM 49.1 °F - 48.2 °F 97% 29.83 in 2.5 mi Calm Calm - 0.02 in Rain Rain
2:15 PM 49.1 °F - 48.2 °F 97% 29.82 in 2.5 mi East 8.1 mph - 0.01 in Rain Rain
2:35 PM 49.1 °F - 48.2 °F 97% 29.83 in 3.0 mi North 4.6 mph - 0.03 in Rain Light Rain
2:55 PM 48.6 °F - 47.8 °F 97% 29.83 in 2.5 mi NE 4.6 mph - 0.04 in Rain Heavy Rain
3:15 PM 48.6 °F - 47.8 °F 97% 29.83 in 2.0 mi NNW 3.5 mph - 0.01 in Rain Heavy Rain
3:35 PM 48.4 °F - 47.7 °F 97% 29.83 in 1.8 mi NNE 3.5 mph - 0.02 in   Drizzle
3:55 PM 48.4 °F - 47.7 °F 97% 29.83 in 2.0 mi NE 5.8 mph - 0.03 in   Drizzle
4:15 PM 48.4 °F - 47.7 °F 97% 29.83 in 2.5 mi NE 5.8 mph - 0.01 in   Overcast
4:35 PM 48.2 °F - 47.5 °F 97% 29.83 in 3.0 mi NE 4.6 mph - 0.01 in   Overcast
4:55 PM 48.2 °F - 47.5 °F 97% 29.84 in 4.0 mi NNE 3.5 mph - 0.02 in   Overcast
5:15 PM 48.2 °F - 47.5 °F 97% 29.84 in 5.0 mi NE 6.9 mph - N/A   Overcast
5:35 PM 48.2 °F - 47.5 °F 97% 29.84 in 3.0 mi NE 5.8 mph - 0.01 in   Overcast
5:55 PM 48.2 °F - 47.5 °F 97% 29.84 in 3.0 mi NNE 4.6 mph - 0.01 in   Overcast
6:15 PM 48.2 °F - 47.3 °F 97% 29.85 in 3.0 mi NNE 3.5 mph - 0.01 in   Overcast
6:35 PM 47.8 °F - 47.3 °F 98% 29.84 in 3.0 mi Calm Calm - 0.01 in   Overcast
6:55 PM 47.7 °F - 47.1 °F 98% 29.85 in 2.5 mi North 3.5 mph - 0.01 in   Overcast
7:15 PM 47.3 °F - 46.6 °F 97% 29.86 in 1.8 mi NNE 5.8 mph - 0.01 in   Overcast
7:35 PM 46.9 °F - 46.4 °F 98% 29.86 in 2.0 mi Calm Calm - 0.01 in   Overcast
7:55 PM 46.8 °F - 46.4 °F 99% 29.86 in 2.0 mi Calm Calm - 0.01 in   Overcast
8:15 PM 46.8 °F - 46.4 °F 99% 29.87 in 2.0 mi Calm Calm - N/A   Overcast
8:35 PM 46.8 °F - 46.2 °F 98% 29.86 in 1.8 mi Calm Calm - N/A   Overcast
8:55 PM 46.6 °F - 46.0 °F 98% 29.86 in 1.8 mi Calm Calm - N/A   Overcast
9:15 PM 46.6 °F - 46.0 °F 98% 29.86 in 2.0 mi Calm Calm - N/A   Overcast
9:35 PM 46.6 °F - 46.0 °F 98% 29.85 in 1.2 mi Calm Calm - N/A   Overcast
9:55 PM 46.4 °F - 45.9 °F 98% 29.85 in 1.0 mi Calm Calm - N/A   Overcast
10:15 PM 46.4 °F - 45.7 °F 97% 29.85 in 0.8 mi Calm Calm - N/A   Overcast
10:35 PM 46.4 °F - 45.7 °F 97% 29.86 in 0.8 mi Calm Calm - N/A   Overcast
10:55 PM 46.4 °F - 45.7 °F 97% 29.85 in 0.8 mi Calm Calm - N/A   Overcast
11:15 PM 46.2 °F - 45.7 °F 98% 29.85 in 0.5 mi Calm Calm - N/A Fog Fog
11:35 PM 46.4 °F - 45.7 °F 97% 29.85 in 0.5 mi Calm Calm - N/A Fog Fog
11:55 PM 46.4 °F - 45.9 °F 98% 29.86 in 0.5 mi Calm Calm - N/A Fog Fog